This is the latest recevied weather packets stored in our database for station/object DM4XI-13. If no packets are shown the sender has not sent any weather packets the latest 10 day(s).
| Time | Temp. | Humidity | Pressure | Rain* | Wind** | Luminosity | Snow |
|---|---|---|---|---|---|---|---|
| 1777440809 | 7.78° C | 44% | 1020.3 hPa | 0 mm | 0.89 m/s, 339° | 94 W/m² | - |
| 1777440748 | 7.78° C | 44% | 1020.4 hPa | 0 mm | 0.89 m/s, 317° | 92 W/m² | - |
| 1777440687 | 7.78° C | 44% | 1020.2 hPa | 0 mm | 0 m/s | 90 W/m² | - |
| 1777440626 | 7.78° C | 44% | 1020.1 hPa | 0 mm | 1.34 m/s, 108° | 91 W/m² | - |
| 1777440565 | 7.78° C | 44% | 1020.3 hPa | 0 mm | 0.45 m/s, 79° | 88 W/m² | - |
| 1777440504 | 7.78° C | 44% | 1020.4 hPa | 0 mm | 0.45 m/s, 36° | 86 W/m² | - |
| 1777440444 | 7.78° C | 44% | 1020.4 hPa | 0 mm | 0.89 m/s, 359° | 85 W/m² | - |
| 1777440382 | 7.78° C | 44% | 1020.1 hPa | 0 mm | 1.34 m/s, 14° | 83 W/m² | - |
| 1777440321 | 7.78° C | 44% | 1020.2 hPa | 0 mm | 1.34 m/s, 15° | 82 W/m² | - |
| 1777440260 | 7.78° C | 44% | 1020 hPa | 0 mm | 1.34 m/s, 24° | 80 W/m² | - |
| 1777440199 | 7.78° C | 45% | 1020.1 hPa | 0 mm | 0 m/s | 78 W/m² | - |
| 1777440138 | 7.78° C | 45% | 1020.2 hPa | 0 mm | 0 m/s | 77 W/m² | - |
| 1777440077 | 7.78° C | 44% | 1020.1 hPa | 0 mm | 0.89 m/s, 233° | 75 W/m² | - |
| 1777440015 | 7.22° C | 44% | 1020 hPa | 0 mm | 0.45 m/s, 38° | 74 W/m² | - |
| 1777439955 | 7.22° C | 45% | 1020 hPa | 0 mm | 0 m/s | 73 W/m² | - |
| 1777439894 | 7.22° C | 45% | 1020.2 hPa | 0 mm | 0.45 m/s, 116° | 72 W/m² | - |
| 1777439832 | 7.22° C | 45% | 1020.1 hPa | 0 mm | 0.45 m/s, 336° | 70 W/m² | - |
| 1777439772 | 7.22° C | 45% | 1020 hPa | 0 mm | 0.89 m/s, 14° | 69 W/m² | - |
| 1777439711 | 7.22° C | 45% | 1020 hPa | 0 mm | 0.89 m/s, 332° | 67 W/m² | - |
| 1777439650 | 7.22° C | 45% | 1019.9 hPa | 0 mm | 0.45 m/s, 332° | 66 W/m² | - |
| 1777439589 | 7.22° C | 45% | 1020 hPa | 0 mm | 0.45 m/s, 266° | 65 W/m² | - |
| 1777439528 | 7.22° C | 46% | 1020.1 hPa | 0 mm | 0.45 m/s, 114° | 63 W/m² | - |
| 1777439467 | 7.22° C | 46% | 1020.1 hPa | 0 mm | 0.45 m/s, 5° | 62 W/m² | - |
| 1777439405 | 7.22° C | 46% | 1020.1 hPa | 0 mm | 0.89 m/s, 12° | 61 W/m² | - |
| 1777439345 | 7.22° C | 46% | 1020.2 hPa | 0 mm | 0.89 m/s, 4° | 60 W/m² | - |
* Rain latest hour (hover to see other rain measurements)
** Current wind speed in m/s (hover to see current wind gust speed)